Home > Weather > Bad Radkersburg > Past weeks

Flag for Austria Weather for the Past 2 Weeks in Bad Radkersburg, Styria, Austria

Now
38 °F

Clear.


Feels Like: 38 °F
Forecast: 32 / 43 °F
Wind: 1 mph from Southeast

Location: Murska Sobota

Current Time: Feb 11, 2016 at 8:27:38 PM

Latest Report: Feb 11, 2016 at 7:00 PM


Visibility: 31 mi

Pressure: 29.81 "Hg

Humidity: 70%

Dew point: 29 °F

Location of Bad RadkersburgLocation

Historic Weather in Bad Radkersburg — Graph

°F

Bad Radkersburg Temperature Yesterday

Maximum temperature yesterday: 46 °F (at 5:00 AM)
Minimum temperature yesterday: 32 °F (at 8:00 AM)
Average temperature yesterday: 37 °F

High & Low Weather Summary for the Past Weeks

 TemperatureHumidityPressure
High62 °F (Feb 1, 4:00 PM)100% (Jan 30, 10:00 AM)30.47 "Hg (Jan 30, 10:00 AM)
Low27 °F (Feb 6, 7:00 AM)41% (Feb 11, 4:00 PM)29.21 "Hg (Feb 10, 6:00 AM)
Average44 °F77%30.07 "Hg
* Reported Jan 27 7:00 PM — Feb 11 7:00 PM, Bad Radkersburg, Weather by CustomWeather, © 2016

Note: Actual official high and low records may vary slightly from our data, if they occured in-between our weather recording intervals... More about our weather records

Advertising

Bad Radkersburg Weather History for the Previous 24 Hours

 ConditionsComfort  
Time TempWeatherWind HumidityBarometerVisibility
7:00 PM
Thu, Feb 11
38 °FClear.1 mph70%29.81 "Hg31 mi
6:00 PM42 °FQuite cool.2 mph59%29.79 "HgN/A
5:00 PM48 °FCool.1 mph45%29.77 "HgN/A
4:00 PM52 °FCool.1 mph41%29.76 "HgN/A
3:00 PM50 °FCool.2 mph42%29.76 "HgN/A
2:00 PM49 °FScattered clouds.2 mph43%29.76 "Hg31 mi
1:00 PM46 °FPassing clouds.1 mph57%29.77 "Hg31 mi
12:00 PM43 °FQuite cool.1 mph70%29.79 "HgN/A
11:00 AM42 °FQuite cool.1 mph69%29.79 "HgN/A
10:00 AM35 °FChilly.1 mph88%29.79 "HgN/A
9:00 AM31 °FChilly.1 mph96%29.78 "HgN/A
8:00 AM31 °FPassing clouds.1 mph96%29.76 "Hg12 mi
7:00 AM31 °FPassing clouds.2 mph97%29.75 "Hg6 mi
5:00 AM29 °FChilly.1 mph98%29.72 "HgN/A
2:00 AM31 °FChilly.1 mph98%29.68 "HgN/A
1:00 AM31 °FChilly.1 mph97%29.66 "HgN/A
12:00 AM31 °FChilly.1 mph96%29.65 "HgN/A
10:00 PM
Wed, Feb 10
34 °FChilly.2 mph91%29.61 "HgN/A
9:00 PM37 °FChilly.2 mph87%29.58 "HgN/A
8:00 PM37 °FChilly.3 mph91%29.56 "HgN/A
Weather by CustomWeather, © 2016

See weather overviewHow to use our weather pages